Aberdeen / Amory, MS

4:16 PM CST on December 12, 2019 (GMT -0600)
Aberdeen / Amory

Weather History for KM40 - June, 2019

Change the Weather History Date:

Wednesday, June 5, 2019

  Actual Average (KCBM) Record (KCBM)
Temperature  
Mean Temperature 78 °F -  
Max Temperature 87 °F 83 °F 96 °F (2011)
Min Temperature 69 °F 65 °F 60 °F (2003)
Cooling Degree Days 13    
Growing Degree Days 28 (Base 50)    
Moisture  
Dew Point 77 °F    
Average Humidity 100    
Maximum Humidity 100    
Minimum Humidity 100    
Precipitation  
Precipitation 0.00 in - - ()
Sea Level Pressure  
Sea Level Pressure 29.95 in    
Wind  
Wind Speed 3 mph ()    
Max Wind Speed 15 mph    
Max Gust Speed 21 mph    
Visibility 8.7 miles    
Events Rain    
Averages and records for this station are not official NWS values.
T = Trace of Precipitation, MM = Missing Value Source: Averaged Metar Reports

Daily Weather History Graph

Daily Weather History Graph

Search for Another Location

Airport or City:

Astronomy

Jun. 05, 2019 Rise Set
Actual Time 5:43 AM CDT 8:01 PM CDT
Civil Twilight 5:14 AM CDT 8:30 PM CDT
Nautical Twilight 4:39 AM CDT 9:06 PM CDT
Astronomical Twilight 4:00 AM CDT 9:44 PM CDT
Moon 7:48 AM CDT (6/5) 10:28 PM CDT (6/5)
Length of Visible Light 15h 16m
Length of Day
14h 18m
Waxing Crescent, 7% of the Moon is Illuminated
Jun 5
Waxing Crescent
Jun 10
First Quarter
Jun 17
Full
Jun 25
Last Quarter
Jul 2
New

Hourly Weather History & Observations

Time (CDT) Temp. Heat Index Dew Point Humidity Pressure Visibility Wind Dir Wind Speed Gust Speed Precip Events Conditions
12:15 AM 75.2 °F - 75.2 °F 100% 29.98 in 10.0 mi SE 4.6 mph - N/A   Clear
12:35 AM 75.2 °F - 75.2 °F 100% 29.98 in 10.0 mi SE 5.8 mph - N/A   Clear
12:55 AM 75.2 °F - 75.2 °F 100% 29.98 in 10.0 mi SSE 3.5 mph - N/A   Clear
1:15 AM 75.2 °F - 75.2 °F 100% 29.97 in 10.0 mi SE 3.5 mph - N/A   Clear
1:35 AM 75.2 °F - 75.2 °F 100% 29.96 in 10.0 mi Calm Calm - N/A   Clear
1:55 AM 73.4 °F - 73.4 °F 100% 29.96 in 9.0 mi Calm Calm - N/A   Clear
2:15 AM 73.4 °F - 73.4 °F 100% 29.95 in 10.0 mi Calm Calm - N/A   Clear
2:35 AM 73.4 °F - 73.4 °F 100% 29.95 in 9.0 mi Calm Calm - N/A   Clear
2:55 AM 73.4 °F - 73.4 °F 100% 29.95 in 7.0 mi Calm Calm - N/A   Clear
3:15 AM 71.6 °F - 71.6 °F 100% 29.94 in 7.0 mi Calm Calm - N/A   Clear
3:35 AM - - - N/A% 29.94 in 10.0 mi Calm Calm - N/A   Clear
3:55 AM 71.6 °F - 71.6 °F 100% 29.94 in 9.0 mi Calm Calm - N/A   Clear
4:15 AM 71.6 °F - 71.6 °F 100% 29.93 in 6.0 mi Calm Calm - N/A   Clear
4:35 AM 73.4 °F - 73.4 °F 100% 29.93 in 9.0 mi Calm Calm - N/A   Clear
4:55 AM 71.6 °F - 71.6 °F 100% 29.93 in 7.0 mi Calm Calm - N/A   Clear
5:15 AM 71.6 °F - 71.6 °F 100% 29.95 in 7.0 mi Calm Calm - N/A   Clear
5:35 AM 71.6 °F - 71.6 °F 100% 29.96 in 5.0 mi Calm Calm - N/A   Clear
5:55 AM 71.6 °F - 71.6 °F 100% 29.96 in 6.0 mi South 3.5 mph - N/A   Partly Cloudy
6:15 AM 73.4 °F - 73.4 °F 100% 29.96 in 9.0 mi Calm Calm - N/A   Clear
6:35 AM 73.4 °F - 73.4 °F 100% 29.97 in 9.0 mi Calm Calm - N/A   Clear
6:55 AM 73.4 °F - 73.4 °F 100% 29.96 in 9.0 mi Calm Calm - N/A   Partly Cloudy
7:15 AM 73.4 °F - 73.4 °F 100% 29.97 in 10.0 mi Calm Calm - N/A   Clear
7:35 AM 75.2 °F - 75.2 °F 100% 29.97 in 8.0 mi Calm Calm - N/A   Clear
7:55 AM 77.0 °F - 77.0 °F 100% 29.98 in 9.0 mi SSE 3.5 mph - N/A   Clear
8:15 AM 77.0 °F - 77.0 °F 100% 29.98 in 9.0 mi Calm Calm - N/A   Clear
8:35 AM 77.0 °F - 77.0 °F 100% 29.98 in 10.0 mi Calm Calm - N/A   Partly Cloudy
8:55 AM 77.0 °F - 77.0 °F 100% 29.98 in 9.0 mi SE 3.5 mph - N/A   Clear
9:15 AM 78.8 °F - 78.8 °F 100% 29.98 in 10.0 mi South 4.6 mph - N/A   Clear
9:35 AM 80.6 °F 89.3 °F 80.6 °F 100% 29.98 in 9.0 mi SSW 4.6 mph - N/A   Clear
10:15 AM 80.6 °F 89.3 °F 80.6 °F 100% 29.99 in 8.0 mi SW 4.6 mph - N/A   Clear
10:35 AM 82.4 °F 96.1 °F 82.4 °F 100% 29.99 in 9.0 mi Variable 5.8 mph - N/A   Clear
10:55 AM 82.4 °F 96.1 °F 82.4 °F 100% 29.99 in 9.0 mi SW 5.8 mph - N/A   Clear
11:15 AM 84.2 °F 103.5 °F 84.2 °F 100% 29.99 in 9.0 mi SSW 8.1 mph - N/A   Clear
11:35 AM 84.2 °F 103.5 °F 84.2 °F 100% 29.98 in 9.0 mi SW 5.8 mph - N/A   Scattered Clouds
11:55 AM 86.0 °F 111.5 °F 86.0 °F 100% 29.98 in 9.0 mi Variable 6.9 mph - N/A   Mostly Cloudy
12:15 PM 87.8 °F 120.2 °F 87.8 °F 100% 29.98 in 9.0 mi SW 6.9 mph - N/A   Scattered Clouds
12:35 PM 87.8 °F 120.2 °F 87.8 °F 100% 29.97 in 9.0 mi Variable 4.6 mph - N/A   Mostly Cloudy
12:55 PM 87.8 °F 120.2 °F 87.8 °F 100% 29.95 in 9.0 mi West 8.1 mph - N/A   Mostly Cloudy
1:15 PM 87.8 °F 120.2 °F 87.8 °F 100% 29.96 in 9.0 mi Variable 6.9 mph - N/A   Scattered Clouds
1:35 PM 87.8 °F 120.2 °F 87.8 °F 100% 29.95 in 10.0 mi SW 5.8 mph - N/A   Mostly Cloudy
1:55 PM 86.0 °F 111.5 °F 86.0 °F 100% 29.95 in 8.0 mi WSW 6.9 mph - N/A   Overcast
2:15 PM 86.0 °F 111.5 °F 86.0 °F 100% 29.95 in 6.0 mi West 5.8 mph 11.5 mph N/A   Mostly Cloudy
2:35 PM 84.2 °F 103.5 °F 84.2 °F 100% 29.94 in 7.0 mi NW 4.6 mph - N/A   Clear
2:55 PM 82.4 °F 96.1 °F 82.4 °F 100% 29.93 in 9.0 mi NE 9.2 mph - N/A   Partly Cloudy
3:15 PM 80.6 °F 89.3 °F 80.6 °F 100% 29.93 in 9.0 mi NNE 6.9 mph - N/A   Mostly Cloudy
3:35 PM 80.6 °F 89.3 °F 80.6 °F 100% 29.93 in 7.0 mi Variable 4.6 mph - N/A   Mostly Cloudy
3:55 PM 82.4 °F 96.1 °F 82.4 °F 100% 29.93 in 9.0 mi North 4.6 mph - N/A   Scattered Clouds
4:15 PM 82.4 °F 96.1 °F 82.4 °F 100% 29.93 in 7.0 mi NE 5.8 mph - N/A   Clear
4:35 PM 82.4 °F 96.1 °F 82.4 °F 100% 29.93 in 9.0 mi Calm Calm - N/A   Partly Cloudy
4:55 PM 82.4 °F 96.1 °F 82.4 °F 100% 29.93 in 10.0 mi Calm Calm - N/A   Partly Cloudy
5:15 PM 82.4 °F 96.1 °F 82.4 °F 100% 29.93 in 10.0 mi Variable 4.6 mph - N/A   Clear
5:35 PM 82.4 °F 96.1 °F 82.4 °F 100% 29.93 in 10.0 mi SW 5.8 mph - N/A   Clear
5:55 PM 80.6 °F 89.3 °F 80.6 °F 100% 29.94 in 9.0 mi SW 15.0 mph 20.7 mph N/A   Mostly Cloudy
6:15 PM 73.4 °F - 73.4 °F 100% 29.95 in 3.0 mi West 9.2 mph 19.6 mph N/A Rain Light Rain
6:35 PM 71.6 °F - 71.6 °F 100% 29.93 in 6.0 mi NW 4.6 mph - N/A   Light Drizzle
6:55 PM 73.4 °F - 73.4 °F 100% 29.92 in 9.0 mi Calm Calm - N/A   Partly Cloudy
7:15 PM 73.4 °F - 73.4 °F 100% 29.92 in 10.0 mi Calm Calm - N/A   Clear
7:35 PM 73.4 °F - 73.4 °F 100% 29.92 in 10.0 mi Calm Calm - N/A   Scattered Clouds
7:55 PM 73.4 °F - 73.4 °F 100% 29.92 in 8.0 mi SSE 4.6 mph - N/A   Scattered Clouds
8:15 PM 71.6 °F - 71.6 °F 100% 29.91 in 5.0 mi South 4.6 mph - N/A   Clear
8:35 PM 71.6 °F - 71.6 °F 100% 29.91 in 10.0 mi Calm Calm - N/A   Clear
8:55 PM 71.6 °F - 71.6 °F 100% 29.91 in 10.0 mi Calm Calm - N/A   Partly Cloudy
9:15 PM 71.6 °F - 71.6 °F 100% 29.92 in 10.0 mi Calm Calm - N/A   Mostly Cloudy
9:35 PM 73.4 °F - 73.4 °F 100% 29.92 in 10.0 mi SSE 6.9 mph - N/A   Mostly Cloudy
9:55 PM 73.4 °F - 73.4 °F 100% 29.93 in 10.0 mi South 6.9 mph - N/A   Mostly Cloudy
10:15 PM 73.4 °F - 73.4 °F 100% 29.95 in 10.0 mi SSW 12.7 mph - N/A   Overcast
10:35 PM 71.6 °F - 71.6 °F 100% 29.95 in 9.0 mi SW 9.2 mph 16.1 mph N/A   Light Drizzle
10:55 PM 71.6 °F - 71.6 °F 100% 29.94 in 10.0 mi Calm Calm - N/A   Mostly Cloudy
11:15 PM 69.8 °F - 69.8 °F 100% 29.93 in 10.0 mi Calm Calm - N/A   Overcast
11:35 PM 69.8 °F - 69.8 °F 100% 29.92 in 10.0 mi Calm Calm - N/A   Overcast
11:55 PM 69.8 °F - 69.8 °F 100% 29.92 in 10.0 mi SE 4.6 mph - N/A   Overcast